Weather History for KMHT - June, 2013

Change the Weather History Date:

Friday, June 7, 2013

  Actual Average Record
Temperature  
Mean Temperature 54 °F -  
Max Temperature 57 °F 72 °F 97 °F (1999)
Min Temperature 51 °F 50 °F 30 °F (1958)
Degree Days  
Heating Degree Days 11    
Growing Degree Days 4 (Base 50)    
Moisture  
Dew Point 51 °F    
Average Humidity 90    
Maximum Humidity 94    
Minimum Humidity 82    
Precipitation  
Precipitation 1.04 in - - ()
Sea Level Pressure  
Sea Level Pressure 30.05 in    
Wind  
Wind Speed 5 mph (NE)    
Max Wind Speed 13 mph    
Max Gust Speed 21 mph    
Visibility 5 miles    
Events Rain    
Averages and records for this station are not official NWS values.
T = Trace of Precipitation, MM = Missing Value Source: NWS Daily Summary

Daily Weather History Graph

Daily Weather History Graph

Search for Another Location

Airport or City:

Trip Planner

Search our weather history database for the weather conditions in past years. The results will help you decide how hot, cold, wet, or windy it might be!

Date:

Astronomy

Jun. 07, 2013 Rise Set
Actual Time 5:07 AM EDT 8:22 PM EDT
Civil Twilight 4:32 AM EDT 8:57 PM EDT
Nautical Twilight 3:47 AM EDT 9:42 PM EDT
Astronomical Twilight 2:52 AM EDT 10:37 PM EDT
Moon 4:29 AM EDT (6/7) 7:32 PM EDT (6/7)
Length of Visible Light 16h 24m
Length of Day
15h 15m
Waning Crescent, 1% of the Moon is Illuminated
Jun 7
Waning Crescent
Jun 8
New
Jun 16
First Quarter
Jun 23
Full
Jun 30
Last Quarter

Hourly Weather History & Observations

Time (EDT) Temp. Dew Point Humidity Pressure Visibility Wind Dir Wind Speed Gust Speed Precip Events Conditions
12:53 AM 57.9 °F 53.1 °F 84% 30.14 in 10.0 mi Calm Calm - 0.02 in Rain Light Rain
1:53 AM 57.0 °F 55.0 °F 93% 30.13 in 10.0 mi Calm Calm - 0.00 in   Overcast
2:53 AM 57.0 °F 54.0 °F 89% 30.09 in 10.0 mi East 6.9 mph - N/A   Overcast
3:53 AM 55.9 °F 53.1 °F 90% 30.07 in 10.0 mi ENE 5.8 mph - 0.00 in   Overcast
4:53 AM 55.9 °F 52.0 °F 87% 30.08 in 10.0 mi East 3.5 mph - N/A   Overcast
5:53 AM 55.9 °F 51.1 °F 84% 30.09 in 10.0 mi ENE 3.5 mph - N/A   Overcast
6:53 AM 55.9 °F 51.1 °F 84% 30.10 in 10.0 mi Calm Calm - 0.01 in Rain Light Rain
7:53 AM 55.0 °F 51.1 °F 86% 30.10 in 10.0 mi NNE 4.6 mph - 0.00 in   Overcast
8:53 AM 54.0 °F 48.9 °F 83% 30.10 in 5.0 mi NNE 9.2 mph - 0.04 in Rain Light Rain
9:25 AM 53.6 °F 48.2 °F 82% 30.06 in 4.0 mi NNE 6.9 mph - 0.01 in Rain Light Rain
9:53 AM 53.1 °F 50.0 °F 89% 30.10 in 6.0 mi NNE 6.9 mph - 0.02 in Rain Light Rain
10:03 AM 53.6 °F 50.0 °F 88% 30.07 in 5.0 mi NNE 8.1 mph - 0.01 in Rain Light Rain
10:11 AM 51.8 °F 50.0 °F 94% 30.07 in 3.0 mi NNE 8.1 mph - 0.02 in Rain Light Rain
10:53 AM 52.0 °F 50.0 °F 93% 30.11 in 3.0 mi NE 9.2 mph - 0.03 in Rain Light Rain
11:00 AM 51.8 °F 50.0 °F 94% 30.07 in 2.0 mi NNE 9.2 mph - 0.00 in Rain Light Rain
11:07 AM 51.8 °F 50.0 °F 94% 30.07 in 2.0 mi NE 5.8 mph - 0.01 in Rain Light Rain
11:31 AM 51.8 °F 50.0 °F 94% 30.07 in 2.0 mi NE 8.1 mph - 0.02 in Rain Light Rain
11:53 AM 53.1 °F 50.0 °F 89% 30.11 in 2.0 mi NE 12.7 mph 20.7 mph 0.03 in Rain Light Rain
12:04 PM 53.6 °F 50.0 °F 88% 30.06 in 3.0 mi NE 9.2 mph - 0.01 in Rain Light Rain
12:25 PM 53.6 °F 51.8 °F 94% 30.05 in 3.0 mi Variable 6.9 mph - 0.02 in Rain Light Rain
12:53 PM 54.0 °F 52.0 °F 93% 30.10 in 3.0 mi North 5.8 mph - 0.04 in Rain Light Rain
1:53 PM 55.0 °F 53.1 °F 93% 30.09 in 3.0 mi North 5.8 mph - 0.08 in Rain Rain
2:32 PM 55.4 °F 53.6 °F 94% 30.04 in 3.0 mi East 6.9 mph - 0.05 in Rain Light Rain
2:53 PM 55.9 °F 53.1 °F 90% 30.08 in 3.0 mi ENE 6.9 mph - 0.08 in Rain Rain
3:19 PM 55.4 °F 53.6 °F 94% 30.03 in 3.0 mi NE 4.6 mph - 0.04 in Rain Light Rain
3:53 PM 55.9 °F 53.1 °F 90% 30.06 in 3.0 mi NE 5.8 mph - 0.09 in Rain Light Rain
4:53 PM 55.0 °F 52.0 °F 89% 30.03 in 3.0 mi ENE 11.5 mph - 0.06 in Rain Light Rain
5:47 PM 53.6 °F 51.8 °F 94% 29.98 in 2.5 mi NE 9.2 mph - 0.13 in Rain Heavy Rain
5:53 PM 53.1 °F 51.1 °F 93% 30.02 in 2.5 mi NE 10.4 mph - 0.16 in Rain Heavy Rain
6:15 PM 53.6 °F 51.8 °F 94% 29.98 in 3.0 mi ENE 3.5 mph - 0.04 in Rain Light Rain
6:53 PM 53.1 °F 50.0 °F 89% 30.03 in 3.0 mi ENE 10.4 mph - 0.12 in Rain Rain
7:53 PM 51.1 °F 48.9 °F 92% 30.00 in 3.0 mi NE 8.1 mph - 0.08 in Rain Rain
8:53 PM 52.0 °F 48.9 °F 89% 29.97 in 3.0 mi NE 10.4 mph 18.4 mph 0.07 in Rain Rain
9:53 PM 52.0 °F 50.0 °F 93% 29.96 in 3.0 mi NE 8.1 mph - 0.06 in Rain Rain
10:53 PM 53.1 °F 50.0 °F 89% 29.94 in 3.0 mi NNE 9.2 mph 16.1 mph 0.04 in Rain Light Rain
11:53 PM 53.1 °F 51.1 °F 93% 29.90 in 8.0 mi NNE 9.2 mph - 0.01 in Rain Light Rain